Regional Weather Roundup
Issued by NWS

Home | Current Version | Previous Version | Graphics & Text | Print | Product List | Glossary On
Versions: 1 2 3 4 5 6 7 8 9 10 11 12 13 14 15 16 17 18 19 20 21 22 23 24 25 26 27 28 29 30 31 32 33 34 35 36 37 38 39 40 41 42 43 44 45 46 47 48 49 50
000
ASUS45 KTFX 251110
RWRMT
MONTANA REGIONAL WEATHER ROUNDUP
NATIONAL WEATHER SERVICE GREAT FALLS MT
500 AM MDT MON SEP 25 2017

NOTE: "FAIR" INDICATES FEW OR NO CLOUDS BELOW 12000 FEET WITH NO
SIGNIFICANT WEATHER AND/OR OBSTRUCTIONS TO VISIBILITY.

MTZ001>007-043-251200-
WEST OF THE DIVIDE

CITY           SKY/WX    TMP DP  RH WIND       PRES   REMARKS
KALISPELL      CLOUDY    46  43  89 NW3       30.06R
MISSOULA       CLOUDY    46  41  82 CALM      30.10R
BUTTE          CLOUDY    29  26  89 SE6       30.12S WCI  23
MULLAN PASS    CLOUDY    39  34  82 NW6       30.11S
ANACONDA         N/A     37  30  75 S3        30.10S
DEER LODGE       N/A     36  30  80 CALM      30.12S
EUREKA           N/A     48  39  71 MISG      30.05R
HAMILTON         N/A     46  36  66 S8        30.10S
LIBBY            N/A     46  43  87 CALM      30.05R
$$

MTZ008-052>055-251200-
SOUTHWEST MONTANA

CITY           SKY/WX    TMP DP  RH WIND       PRES   REMARKS
BOZEMAN        MOCLDY    32  29  88 SE9       30.11F WCI  24
DILLON         CLOUDY    34  28  79 CALM      30.11R
W YELLOWSTONE  CLOUDY    28  28 100 CALM      30.11S
ENNIS          CLEAR     25  23  93 CALM      30.16S
THREE FORKS      N/A     28  26  92 CALM      30.09S
$$

MTZ009-010-012-014-046-048-049-054-251200-
EAST SLOPES AND CENTRAL MONTANA

CITY           SKY/WX    TMP DP  RH WIND       PRES   REMARKS
CUT BANK       CLEAR     35  30  82 W3        30.02R
GREAT FALLS    CLEAR     39  30  70 S12       30.04S WCI  32
MALMSTROM AFB  CLEAR     35  31  85 SW3       30.04S
HELENA         CLEAR     36  31  82 CALM      30.09S
BOWMANS CRNR     N/A     36  29  75 S10       30.03S WCI  28
CHOTEAU          N/A     37  32  81 SW6       30.04S
FAIRFIELD        N/A     38  30  71 CALM      30.03R
POWER            N/A     33  28  83 SW5       30.03S
RAYNESFORD       N/A     33  28  82 CALM      30.05S
ULM              N/A     35  30  81 SE7       30.04S WCI  29
$$

MTZ011-013-016-021-045-047-050-051-251200-
NORTH CENTRAL MONTANA

CITY           SKY/WX    TMP DP  RH WIND       PRES   REMARKS
HAVRE          CLEAR     34  30  85 NW3       30.03S
LEWISTOWN      CLEAR     31  29  92 SE8       30.06S WCI  23
N BAR RANCH      N/A     36  30  80 W3        30.09S
CHINOOK          N/A     37  36  93 E5        30.04S
DENTON           N/A     35  31  86 S7        30.02S WCI  29
GEYSER           N/A     38  29  68 SW12      30.04S WCI  31
JUDITH GAP       N/A     33  31  93 S9        30.07F WCI  26
WINIFRED         N/A     42  31  66 W3        30.05S
$$

MTZ017>020-022>027-061-062-251200-
NORTHEAST MONTANA

CITY           SKY/WX    TMP DP  RH WIND       PRES   REMARKS
GLASGOW        CLOUDY    38  37  97 E9        30.11S WCI  31
JORDAN           N/A     30  28  92 E5        30.11R
SIDNEY           N/A    N/A N/A N/A MISG        N/A
WOLF POINT     FOG       32  30  92 CALM      30.14S VSB 3/4
MALTA          CLEAR     43  37  81 CALM      30.08S
PLENTYWOOD       N/A     39  37  93 CALM      30.14R
POPLAR           N/A     34  34 100 CALM      30.14S
$$

MTZ028>42-056>058-251200-
SOUTHCENTRAL AND SOUTHEAST MONTANA

CITY           SKY/WX    TMP DP  RH WIND       PRES   REMARKS
BAKER          CLOUDY    41  38  89 CALM      30.14F
BILLINGS       CLOUDY    39  36  89 CALM      30.09S
LIVINGSTON     CLEAR     29  28  96 NW5       30.10S
MILES CITY     PTCLDY    35  34  96 CALM      30.12F
BIG TIMBER     CLEAR     34  32  93 W8        30.11S WCI  27
HARLOWTON        N/A     30  28  92 MISG      30.09F
LAUREL           N/A     36  34  93 SW5       30.11R FOG
ROUNDUP          N/A     36  31  82 SW3       29.99F
$$

REGIONAL REPORTS...DAKOTAS

CITY           SKY/WX    TMP DP  RH WIND       PRES   REMARKS
WILLISTON      CLOUDY    46  44  93 CALM      30.14F
MINOT          CLOUDY    47  44  90 NW6       30.13R
DICKINSON      CLOUDY    43  41  93 W3        30.13S
BEACH          CLOUDY    41  41 100 CALM      30.17S
CROSBY         CLOUDY    45  45 100 CALM      30.14S
TIOGA          CLOUDY    43  45 100 CALM      30.15S
BISMARCK       CLOUDY    48  46  93 N6        30.14S
GRAND FORKS    CLOUDY    49  47  93 N12       30.08R
FARGO          CLOUDY    50  48  93 N9        30.07R
BUFFALO SD       N/A     43  40  89 NE3       30.08R
$$

REGIONAL REPORTS...WYOMING/IDAHO/WASHINGTON

CITY           SKY/WX    TMP DP  RH WIND       PRES   REMARKS
GILLETTE       CLOUDY    40  32  73 CALM      30.10S
SHERIDAN       LGT RAIN  43  42  97 CALM      30.10S
BUFFALO WY     LGT RAIN  39  37  92 SE6       30.11S FOG
CODY           CLOUDY    39  35  86 CALM      30.11S
IDAHO FALLS    CLEAR     32  30  92 CALM      30.11S
SALMON         CLOUDY    41  36  82 CALM      30.12S
BOISE          CLEAR     41  35  79 SW7       30.07R
SPOKANE        MOCLDY    52  43  71 S3        30.06F
$$

REGIONAL REPORTS...ALBERTA

CITY           SKY/WX    TMP DP  RH WIND       PRES   REMARKS
EDMONTON       CLOUDY    50  46  87 SW6       29.89R
CALGARY        PTCLDY    43  34  70 CALM      29.96S
LETHBRIDGE     CLOUDY    46  36  66 SW12      29.96S
MEDICINE HAT   PTCLDY    36  30  80 CALM      29.98S
$$

REGIONAL REPORTS...SASKATCHEWAN

CITY           SKY/WX    TMP DP  RH WIND       PRES   REMARKS
SWIFT CURRENT    N/A     37  32  81 S13       30.03S WCI  29
REGINA         CLOUDY    43  36  75 S7        30.11S
SASKATOON      CLEAR     37  34  87 S6        30.06S
$$



USA.gov is the U.S. government's official web portal to all federal, state and local government web resources and services.